Tiempo cada hora Almaraz

Hoy, 31 Julio, Sábado

Tiempo Temperatura Precipitaciones Viento Presión Humedad
00:00 +20°C° 0 mm 3 mps 729 mmHg 55%
01:00 +19°C° 0 mm 2 mps 729 mmHg 61%
02:00 +17°C° 0 mm 2 mps 729 mmHg 67%
03:00 +16°C° 0 mm 2 mps 729 mmHg 73%
04:00 +16°C° 0 mm 2 mps 729 mmHg 73%
05:00 +16°C° 0 mm 2 mps 729 mmHg 74%
06:00 +16°C° 0 mm 2 mps 729 mmHg 75%
07:00 +18°C° 0 mm 3 mps 729 mmHg 67%
08:00 +20°C° 0 mm 3 mps 730 mmHg 58%
09:00 +22°C° 0 mm 4 mps 730 mmHg 50%
10:00 +25°C° 0 mm 4 mps 730 mmHg 44%
11:00 +27°C° 0 mm 5 mps 730 mmHg 39%
12:00 +29°C° 0 mm 5 mps 729 mmHg 33%
13:00 +29°C° 0 mm 5 mps 729 mmHg 32%
14:00 +29°C° 0 mm 6 mps 729 mmHg 31%
15:00 +30°C° 0 mm 6 mps 729 mmHg 30%
16:00 +29°C° 0 mm 6 mps 729 mmHg 30%
17:00 +28°C° 0 mm 6 mps 729 mmHg 30%
18:00 +28°C° 0 mm 5 mps 729 mmHg 30%
19:00 +25°C° 0 mm 4 mps 729 mmHg 35%
20:00 +22°C° 0 mm 3 mps 730 mmHg 39%
21:00 +21°C° 0 mm 1 mps 730 mmHg 44%
22:00 +20°C° 0 mm 1 mps 730 mmHg 46%
23:00 +19°C° 0 mm 1 mps 731 mmHg 48%

Mañana, 1 Agosto, Domingo

Tiempo Temperatura Precipitaciones Viento Presión Humedad
00:00 +18°C° 0 mm 1 mps 731 mmHg 50%
01:00 +18°C° 0 mm 1 mps 731 mmHg 52%
02:00 +16°C° 0 mm 1 mps 731 mmHg 54%
03:00 +16°C° 0 mm 1 mps 730 mmHg 55%
04:00 +16°C° 0 mm 1 mps 731 mmHg 56%
05:00 +15°C° 0 mm 1 mps 731 mmHg 56%
06:00 +14°C° 0 mm 0 mps 731 mmHg 56%
07:00 +19°C° 0 mm 1 mps 731 mmHg 50%
08:00 +21°C° 0 mm 1 mps 732 mmHg 43%
09:00 +24°C° 0 mm 1 mps 732 mmHg 36%
10:00 +26°C° 0 mm 2 mps 732 mmHg 31%
11:00 +27°C° 0 mm 2 mps 731 mmHg 25%
12:00 +29°C° 0 mm 3 mps 731 mmHg 20%
13:00 +30°C° 0 mm 3 mps 731 mmHg 17%
14:00 +31°C° 0 mm 3 mps 730 mmHg 14%
15:00 +33°C° 0 mm 4 mps 730 mmHg 12%
16:00 +32°C° 0 mm 4 mps 729 mmHg 13%
17:00 +32°C° 0 mm 4 mps 729 mmHg 14%
18:00 +32°C° 0 mm 4 mps 729 mmHg 16%
19:00 +28°C° 0 mm 3 mps 729 mmHg 20%
20:00 +26°C° 0 mm 3 mps 729 mmHg 25%
21:00 +24°C° 0 mm 2 mps 729 mmHg 29%
22:00 +23°C° 0 mm 2 mps 729 mmHg 34%
23:00 +21°C° 0 mm 2 mps 729 mmHg 39%

Pasado mañana, 2 Agosto, Lunes

Tiempo Temperatura Precipitaciones Viento Presión Humedad
00:00 +21°C° 0 mm 1 mps 729 mmHg 44%
01:00 +20°C° 0 mm 1 mps 729 mmHg 50%
02:00 +20°C° 0 mm 1 mps 729 mmHg 55%
03:00 +19°C° 0 mm 1 mps 729 mmHg 60%
04:00 +19°C° 0 mm 1 mps 729 mmHg 60%
05:00 +17°C° 0 mm 0 mps 729 mmHg 60%
06:00 +17°C° 0 mm 0 mps 730 mmHg 60%
07:00 +20°C° 0 mm 0 mps 730 mmHg 50%
08:00 +24°C° 0 mm 1 mps 730 mmHg 40%
09:00 +27°C° 0 mm 1 mps 730 mmHg 31%
10:00 +29°C° 0 mm 1 mps 730 mmHg 27%
11:00 +31°C° 0 mm 1 mps 730 mmHg 23%
12:00 +33°C° 0 mm 1 mps 730 mmHg 19%
13:00 +35°C° 0 mm 2 mps 730 mmHg 18%
14:00 +35°C° 0 mm 2 mps 729 mmHg 17%
15:00 +36°C° 0 mm 2 mps 729 mmHg 16%
16:00 +35°C° 0 mm 2 mps 729 mmHg 16%
17:00 +35°C° 0 mm 2 mps 728 mmHg 16%
18:00 +35°C° 0 mm 2 mps 728 mmHg 17%
19:00 +31°C° 0 mm 2 mps 729 mmHg 20%
20:00 +28°C° 0 mm 1 mps 729 mmHg 24%
21:00 +26°C° 0 mm 1 mps 729 mmHg 27%
22:00 +25°C° 0 mm 1 mps 729 mmHg 29%
23:00 +25°C° 0 mm 1 mps 730 mmHg 30%

3 Agosto, Martes

Tiempo Temperatura Precipitaciones Viento Presión Humedad
00:00 +24°C° 0 mm 1 mps 730 mmHg 31%
01:00 +23°C° 0 mm 1 mps 730 mmHg 33%
02:00 +22°C° 0 mm 1 mps 730 mmHg 35%
03:00 +22°C° 0 mm 1 mps 730 mmHg 36%
04:00 +21°C° 0 mm 1 mps 730 mmHg 39%
05:00 +21°C° 0 mm 1 mps 731 mmHg 42%
06:00 +21°C° 0 mm 1 mps 731 mmHg 45%
07:00 +24°C° 0 mm 1 mps 731 mmHg 41%
08:00 +27°C° 0 mm 1 mps 731 mmHg 37%
09:00 +30°C° 0 mm 2 mps 732 mmHg 34%
10:00 +32°C° 0 mm 2 mps 732 mmHg 28%
11:00 +35°C° 0 mm 2 mps 732 mmHg 23%
12:00 +37°C° 0 mm 3 mps 731 mmHg 18%
13:00 +37°C° 0 mm 3 mps 731 mmHg 17%
14:00 +38°C° 0 mm 3 mps 730 mmHg 15%
15:00 +38°C° 0 mm 4 mps 730 mmHg 14%
16:00 +38°C° 0 mm 4 mps 729 mmHg 14%
17:00 +38°C° 0 mm 4 mps 729 mmHg 15%
18:00 +37°C° 0 mm 4 mps 729 mmHg 15%
19:00 +35°C° 0 mm 4 mps 729 mmHg 18%
20:00 +31°C° 0 mm 3 mps 730 mmHg 22%
21:00 +29°C° 0 mm 3 mps 730 mmHg 25%
22:00 +27°C° 0 mm 3 mps 730 mmHg 28%
23:00 +26°C° 0 mm 2 mps 730 mmHg 31%

4 Agosto, Miércoles

Tiempo Temperatura Precipitaciones Viento Presión Humedad
00:00 +24°C° 0 mm 2 mps 730 mmHg 34%
01:00 +23°C° 0 mm 2 mps 730 mmHg 38%
02:00 +23°C° 0 mm 2 mps 730 mmHg 41%
03:00 +22°C° 0 mm 1 mps 730 mmHg 44%
04:00 +22°C° 0 mm 1 mps 730 mmHg 47%
05:00 +21°C° 0 mm 1 mps 731 mmHg 50%
06:00 +21°C° 0 mm 1 mps 731 mmHg 53%
07:00 +24°C° 0 mm 1 mps 731 mmHg 46%
08:00 +26°C° 0 mm 1 mps 732 mmHg 39%
09:00 +29°C° 0 mm 2 mps 732 mmHg 32%
10:00 +31°C° 0 mm 2 mps 732 mmHg 26%
11:00 +34°C° 0 mm 2 mps 732 mmHg 21%
12:00 +37°C° 0 mm 3 mps 731 mmHg 16%
13:00 +38°C° 0 mm 3 mps 731 mmHg 13%
14:00 +40°C° 0 mm 4 mps 731 mmHg 11%
15:00 +41°C° 0 mm 4 mps 730 mmHg 9%
16:00 +40°C° 0 mm 4 mps 730 mmHg 9%
17:00 +39°C° 0 mm 5 mps 730 mmHg 10%
18:00 +39°C° 0 mm 5 mps 730 mmHg 10%
19:00 +35°C° 0 mm 4 mps 730 mmHg 13%
20:00 +30°C° 0 mm 3 mps 731 mmHg 17%
21:00 +27°C° 0 mm 2 mps 731 mmHg 20%
22:00 +26°C° 0 mm 2 mps 731 mmHg 23%
23:00 +25°C° 0 mm 2 mps 731 mmHg 26%

5 Agosto, Jueves

Tiempo Temperatura Precipitaciones Viento Presión Humedad
00:00 +24°C° 0 mm 2 mps 731 mmHg 29%
01:00 +23°C° 0 mm 1 mps 731 mmHg 31%
02:00 +22°C° 0 mm 1 mps 731 mmHg 33%
03:00 +22°C° 0 mm 1 mps 731 mmHg 36%
04:00 +21°C° 0 mm 1 mps 731 mmHg 37%
05:00 +21°C° 0 mm 1 mps 731 mmHg 39%
06:00 +21°C° 0 mm 1 mps 732 mmHg 40%
07:00 +24°C° 0 mm 1 mps 732 mmHg 34%
08:00 +27°C° 0 mm 2 mps 732 mmHg 29%
09:00 +30°C° 0 mm 2 mps 732 mmHg 23%
10:00 +34°C° 0 mm 3 mps 732 mmHg 22%
11:00 +36°C° 0 mm 4 mps 732 mmHg 20%
12:00 +38°C° 0 mm 4 mps 731 mmHg 19%
13:00 +40°C° 0 mm 5 mps 731 mmHg 19%
14:00 +40°C° 0 mm 6 mps 730 mmHg 19%
15:00 +41°C° 0 mm 7 mps 730 mmHg 19%
16:00 +40°C° 0 mm 7 mps 730 mmHg 19%
17:00 +39°C° 0 mm 6 mps 729 mmHg 20%
18:00 +39°C° 0 mm 6 mps 729 mmHg 20%
19:00 +35°C° 0 mm 5 mps 729 mmHg 22%
20:00 +30°C° 0 mm 4 mps 730 mmHg 25%
21:00 +27°C° 0 mm 3 mps 730 mmHg 27%
22:00 +26°C° 0 mm 3 mps 730 mmHg 34%
23:00 +24°C° 0 mm 2 mps 730 mmHg 40%
Mostrar más

Necesitamos Su Consentimiento

Meteoprog y nuestros Proveedores de Servicios pueden almacenar y acceder a sus datos personales como cookies, identificadores de dispositivo u otras tecnologías similares de su dispositivo y procesar dichos datos para personalizar contenido y anuncios, además de ofrecer funciones de redes sociales y analizar el tráfico.

  • Almacenar y/o acceder a información en su dispositivo

    Se puede almacenar o acceder a cookies, identificadores de dispositivo u otra información de su dispositivo para los fines anteriormente indicados.

  • Anuncios y contenido personalizados, medición de anuncios y contenido, percepciones del público, y desarrollo de productos

    Los anuncios y el contenido pueden personalizarse en base a su perfil. Se pueden añadir más datos para personalizar mejor los anuncios y contenidos. Se puede medir el rendimiento de los anuncios y contenidos. Se puede obtener la percepción sobre el público que ha visto los anuncios y contenidos. Dichos datos pueden usarse para desarrollar o mejorar la experiencia del usuario, sistemas y software.

Al hacer clic en ‘Estoy De Acuerdo’ usted permitirá el uso de las cookies, identificadores de dispositivo, balizas web u otras tecnologías similares indicadas. Su configuración puede cambiarse desde el navegador de su dispositivo.

Para ciertos fines, los intereses legítimos pueden ser considerados por encima del consentimiento. Puede leer más sobre ello en nuestra Política de Privacidad y Cookies.